• In Netherlands
  • List of Countries
  • For 7 days
  • Water Temperature
  • Satellite Maps
  • Weather Map
  • Weather Widgets
  • user-avatar
    Login

    Hourly Weather Newcastle

    Today, 17 August, Thursday

    Time Temperature Precipitation Wind Pressure Humidity
    00:00 +12°C° 0 mm 5 mps 756 mmHg 56%
    01:00 +12°C° 0 mm 5 mps 756 mmHg 58%
    02:00 +11°C° 0 mm 4 mps 756 mmHg 60%
    03:00 +11°C° 0 mm 4 mps 756 mmHg 61%
    04:00 +10°C° 0 mm 4 mps 756 mmHg 65%
    05:00 +10°C° 0 mm 4 mps 756 mmHg 65%
    06:00 +10°C° 0 mm 4 mps 756 mmHg 65%
    07:00 +10°C° 0 mm 4 mps 757 mmHg 65%
    08:00 +13°C° 0 mm 5 mps 757 mmHg 56%
    09:00 +15°C° 0 mm 5 mps 757 mmHg 47%
    10:00 +19°C° 0 mm 6 mps 756 mmHg 38%
    11:00 +20°C° 0 mm 6 mps 756 mmHg 34%
    12:00 +21°C° 0 mm 6 mps 755 mmHg 30%
    13:00 +22°C° 0 mm 6 mps 755 mmHg 27%
    14:00 +22°C° 0 mm 6 mps 754 mmHg 28%
    15:00 +22°C° 0 mm 6 mps 754 mmHg 29%
    16:00 +21°C° 0 mm 6 mps 754 mmHg 33%
    17:00 +19°C° 0 mm 6 mps 754 mmHg 36%
    18:00 +17°C° 0 mm 6 mps 755 mmHg 39%
    19:00 +15°C° 0 mm 6 mps 756 mmHg 43%
    20:00 +15°C° 0 mm 6 mps 756 mmHg 43%
    21:00 +15°C° 0 mm 7 mps 756 mmHg 43%
    22:00 +15°C° 0 mm 7 mps 756 mmHg 40%
    23:00 +15°C° 0 mm 7 mps 756 mmHg 40%

    Tomorrow, 18 August, Friday

    Time Temperature Precipitation Wind Pressure Humidity
    00:00 +13°C° 0 mm 8 mps 756 mmHg 41%
    01:00 +13°C° 0 mm 8 mps 756 mmHg 42%
    02:00 +12°C° 0 mm 8 mps 756 mmHg 44%
    03:00 +12°C° 0 mm 8 mps 756 mmHg 47%
    04:00 +11°C° 0 mm 7 mps 756 mmHg 49%
    05:00 +11°C° 0 mm 8 mps 756 mmHg 51%
    06:00 +11°C° 0 mm 8 mps 756 mmHg 54%
    07:00 +10°C° 0 mm 8 mps 757 mmHg 57%
    08:00 +12°C° 0 mm 9 mps 757 mmHg 50%
    09:00 +13°C° 0 mm 9 mps 757 mmHg 43%
    10:00 +14°C° 0 mm 10 mps 757 mmHg 36%
    11:00 +14°C° 0 mm 10 mps 756 mmHg 34%
    12:00 +16°C° 0 mm 10 mps 756 mmHg 32%
    13:00 +17°C° 0 mm 11 mps 756 mmHg 29%
    14:00 +16°C° 0 mm 11 mps 756 mmHg 30%
    15:00 +16°C° 0 mm 10 mps 756 mmHg 32%
    16:00 +14°C° 0 mm 10 mps 756 mmHg 33%
    17:00 +13°C° 0 mm 10 mps 757 mmHg 36%
    18:00 +12°C° 0 mm 10 mps 758 mmHg 39%
    19:00 +11°C° 0 mm 9 mps 758 mmHg 42%
    20:00 +10°C° 0 mm 9 mps 759 mmHg 44%
    21:00 +8°C° 0 mm 9 mps 759 mmHg 47%
    22:00 +8°C° 0 mm 9 mps 759 mmHg 49%
    23:00 +9°C° 0 mm 8 mps 759 mmHg 50%

    Day after tomorrow, 19 August, Saturday

    Time Temperature Precipitation Wind Pressure Humidity
    00:00 +7°C° 0 mm 8 mps 759 mmHg 51%
    01:00 +7°C° 0 mm 8 mps 759 mmHg 52%
    02:00 +7°C° 0 mm 8 mps 760 mmHg 54%
    03:00 +6°C° 0 mm 8 mps 760 mmHg 55%
    04:00 +6°C° 0 mm 8 mps 760 mmHg 56%
    05:00 +6°C° 0 mm 8 mps 760 mmHg 57%
    06:00 +6°C° 0 mm 8 mps 761 mmHg 57%
    07:00 +5°C° 0 mm 8 mps 761 mmHg 58%
    08:00 +7°C° 0.1 mm 8 mps 762 mmHg 52%
    09:00 +10°C° 0.1 mm 9 mps 762 mmHg 46%
    10:00 +12°C° 0.1 mm 9 mps 762 mmHg 40%
    11:00 +12°C° 0.5 mm 9 mps 762 mmHg 38%
    12:00 +13°C° 0.5 mm 9 mps 762 mmHg 37%
    13:00 +15°C° 0.5 mm 9 mps 762 mmHg 35%
    14:00 +15°C° 0.6 mm 9 mps 762 mmHg 38%
    15:00 +13°C° 0.6 mm 9 mps 763 mmHg 42%
    16:00 +13°C° 0.6 mm 9 mps 763 mmHg 45%
    17:00 +11°C° 0.5 mm 9 mps 763 mmHg 51%
    18:00 +10°C° 0.5 mm 9 mps 764 mmHg 57%
    19:00 +9°C° 0.5 mm 8 mps 765 mmHg 63%
    20:00 +7°C° 0.4 mm 8 mps 765 mmHg 64%
    21:00 +7°C° 0.4 mm 8 mps 766 mmHg 66%
    22:00 +7°C° 0.4 mm 8 mps 766 mmHg 68%
    23:00 +6°C° 0.2 mm 8 mps 766 mmHg 66%

    20 August, Sunday

    Time Temperature Precipitation Wind Pressure Humidity
    00:00 +6°C° 0.2 mm 8 mps 766 mmHg 64%
    01:00 +5°C° 0.2 mm 8 mps 766 mmHg 63%
    02:00 +5°C° 0.1 mm 7 mps 766 mmHg 61%
    03:00 +4°C° 0.1 mm 7 mps 766 mmHg 60%
    04:00 +3°C° 0.1 mm 7 mps 766 mmHg 58%
    05:00 +3°C° 0.1 mm 7 mps 766 mmHg 59%
    06:00 +3°C° 0.1 mm 7 mps 767 mmHg 60%
    07:00 +3°C° 0.1 mm 6 mps 767 mmHg 60%
    08:00 +5°C° 0.2 mm 6 mps 767 mmHg 55%
    09:00 +8°C° 0.2 mm 6 mps 767 mmHg 50%
    10:00 +10°C° 0.2 mm 6 mps 767 mmHg 45%
    11:00 +13°C° 0.1 mm 6 mps 766 mmHg 44%
    12:00 +14°C° 0.1 mm 5 mps 765 mmHg 44%
    13:00 +16°C° 0.1 mm 5 mps 765 mmHg 43%
    14:00 +16°C° 0.2 mm 5 mps 765 mmHg 44%
    15:00 +16°C° 0.2 mm 5 mps 764 mmHg 45%
    16:00 +15°C° 0.2 mm 5 mps 764 mmHg 47%
    17:00 +13°C° 0.1 mm 4 mps 765 mmHg 56%
    18:00 +11°C° 0.1 mm 4 mps 765 mmHg 65%
    19:00 +8°C° 0.1 mm 4 mps 766 mmHg 75%
    20:00 +9°C° 0 mm 3 mps 766 mmHg 79%
    21:00 +8°C° 0 mm 2 mps 766 mmHg 83%
    22:00 +8°C° 0 mm 2 mps 766 mmHg 88%
    23:00 +7°C° 0 mm 2 mps 765 mmHg 90%

    21 August, Monday

    Time Temperature Precipitation Wind Pressure Humidity
    00:00 +7°C° 0 mm 2 mps 765 mmHg 92%
    01:00 +6°C° 0 mm 2 mps 764 mmHg 95%
    02:00 +6°C° 0 mm 2 mps 764 mmHg 95%
    03:00 +6°C° 0 mm 2 mps 764 mmHg 95%
    04:00 +6°C° 0 mm 2 mps 763 mmHg 95%
    05:00 +6°C° 0 mm 2 mps 764 mmHg 90%
    06:00 +7°C° 0 mm 2 mps 764 mmHg 85%
    07:00 +7°C° 0 mm 2 mps 764 mmHg 80%
    08:00 +9°C° 0 mm 2 mps 763 mmHg 73%
    09:00 +11°C° 0 mm 3 mps 763 mmHg 65%
    10:00 +12°C° 0 mm 3 mps 763 mmHg 57%
    11:00 +13°C° 0 mm 3 mps 762 mmHg 52%
    12:00 +14°C° 0 mm 4 mps 761 mmHg 47%
    13:00 +15°C° 0 mm 5 mps 760 mmHg 42%
    14:00 +16°C° 0 mm 5 mps 760 mmHg 40%
    15:00 +16°C° 0 mm 5 mps 759 mmHg 37%
    16:00 +17°C° 0 mm 5 mps 759 mmHg 35%
    17:00 +15°C° 0 mm 5 mps 759 mmHg 39%
    18:00 +13°C° 0 mm 5 mps 760 mmHg 42%
    19:00 +11°C° 0 mm 6 mps 760 mmHg 46%
    20:00 +10°C° 0 mm 6 mps 760 mmHg 46%
    21:00 +10°C° 0 mm 6 mps 760 mmHg 45%
    22:00 +10°C° 0 mm 5 mps 760 mmHg 45%
    23:00 +10°C° 0 mm 5 mps 759 mmHg 45%

    22 August, Tuesday

    Time Temperature Precipitation Wind Pressure Humidity
    00:00 +10°C° 0 mm 5 mps 759 mmHg 46%
    01:00 +9°C° 0 mm 5 mps 758 mmHg 46%
    02:00 +10°C° 0 mm 6 mps 758 mmHg 48%
    03:00 +10°C° 0 mm 6 mps 758 mmHg 49%
    04:00 +10°C° 0 mm 7 mps 758 mmHg 50%
    05:00 +10°C° 0 mm 7 mps 758 mmHg 56%
    06:00 +10°C° 0 mm 7 mps 759 mmHg 61%
    07:00 +10°C° 0 mm 7 mps 760 mmHg 67%
    08:00 +13°C° 0 mm 6 mps 760 mmHg 61%
    09:00 +15°C° 0 mm 6 mps 760 mmHg 56%
    10:00 +17°C° 0 mm 5 mps 761 mmHg 51%
    11:00 +19°C° 0 mm 5 mps 761 mmHg 47%
    12:00 +20°C° 0 mm 5 mps 760 mmHg 44%
    13:00 +21°C° 0 mm 4 mps 760 mmHg 40%
    14:00 +21°C° 0 mm 4 mps 760 mmHg 42%
    15:00 +21°C° 0 mm 3 mps 761 mmHg 43%
    16:00 +20°C° 0 mm 3 mps 761 mmHg 45%
    17:00 +18°C° 0 mm 2 mps 762 mmHg 56%
    18:00 +16°C° 0 mm 2 mps 762 mmHg 67%
    19:00 +13°C° 0 mm 2 mps 763 mmHg 78%
    20:00 +12°C° 0 mm 2 mps 763 mmHg 80%
    21:00 +12°C° 0 mm 2 mps 763 mmHg 82%
    22:00 +10°C° 0 mm 2 mps 764 mmHg 84%
    23:00 +10°C° 0 mm 2 mps 764 mmHg 82%
    Show more